Погода в Каневке

Погода в Каневке : погода сейчас, прогноз погоды и архив. Всё, что Вы хотите узнать о погоде в Каневке!

Поиск расширенной информации на нашем сайте:

Другие новости

Новости СМИ2

Главная страница сайта

Новости сайта

03.07.2017

Напоминаем, что на нашем специализированном сайте Метеоцентр.Азия вы можете получить высокодетализированные автоматические прогнозы погоды по пунктам России, СНГ и мира в авиационном формате (включающие направление и скорость ветра, видимость, явления погоды, количество и форму облачности, нижнюю и верхнюю границу облачности).


Погода в Каневке - сегодня

Время (UTC), дата Ветер
(°,м/с) 
Видим.   Явления Облачность Т
(°С)
Тd
(°С)
f(%) Тe
(°С)
Pmin
(гПа)
dP
(гПа)
Po
(мм)
O2
(г/м3)
Тmin Tmax R s Состояние
почвы
18 12.12.17 180 (Ю) 4-9{12}  20000 м  слаб. ливневой снег  10/10 300 м кучево-дожд. 
[Cb cap]
-2.3 -2.8 96 -5  1006.7  -1  741  301    -0.9  0.4     
21 12.12.17 190 (Ю) 7-14{14}  н/о    н/о 
-2.9 -3.8 93 -7  1003.7  -3  739  301           
00 13.12.17 180 (Ю) 5-11{15}  н/о    н/о 
-3.6 -4.7 92 -7  999.4  -4.2  735  301           
03 13.12.17 170 (Ю) 8-15{15}  н/о    н/о 
-3.2 -4.2 93 -8  993.9  -5.3  731  299  -3.7         
06 13.12.17 170 (Ю) 6-12{15}  4000 м  слаб. снег  10/10 300 м 
[Frnb|Ns]
-2.5 -3.1 96 -6  989.6  -4.2  728  296  -3.7    50  равномерный
сухой снег
100% 
09 13.12.17 180 (Ю) 7-12{14}  20000 м  слаб. снег  10/10 300 м 
[Frnb|Ns]
-1.9 -2.9 93 -6  986  -3.5  726  295           
12 13.12.17 170 (Ю) 5-9{14}  4000 м  слаб. снег  10/10 300 м 
[Frnb|Ns]
-1.6 -1.9 98 -5  982.6  -3.3  723  293           
15 13.12.17 190 (Ю) 5-10{12}  10 км  слаб. снег  10/10 300 м 
[Frnb|Ns]
-0 -0.4 97 -3  979.8  -2.6  721  291         
18 13.12.17 220 (ЮЗ) 5-9{12}  20000 м  позёмок{снег}  10/10 300 м 
[St]
-1.5 -3.3 88 -5  981.1  1.2  722  293    +0.1     
21 13.12.17 220 (ЮЗ) 6-12{13}  н/о    н/о 
-3 -4.8 87 -7  982.8  1.5  723  295           
00 14.12.17 220 (ЮЗ) 6-12{14}  н/о    н/о 
-3.6 -5.2 89 -8  985.3  2.5  725  297           
03 14.12.17 220 (ЮЗ) 3-7{15}  н/о    н/о 
-4.6 -6.8 85 -7  987.4  727  298  -4.7         
06 14.12.17 220 (ЮЗ) 6-13{14}  50000 м  позёмок  8/8 600 м 
[Sc]
-2.6 -4.8 85 -7  988.6  1.3  728  296  -4.7      50  равномерный
сухой снег
100% 
09 14.12.17 240 (ЮЗ) 5-12{15}  20000 м  позёмок  9/9 600 м 
[Sc]
-1.8 -4.5 82 -5  991.3  2.7  730  296           
12 14.12.17 240 (ЮЗ) 5-12{18}  20000 м  позёмок  6/4 600 м верхняя 
[Sc|Ci fib]
-1.7 -4.9 79 -5  994.4  732  297           
15 14.12.17 230 (ЮЗ) 3-6{12}  20000 м    10/10 300 м 
[St]
-1.3 -3.3 86 -3  996.9  2.5  734  297           
18 14.12.17 230 (ЮЗ) 4-8{10}  20000 м    10/10 300 м 
[St]
+0.7 -0.9 89 -2  998.3  1.5  735  295    +0.7       
21 14.12.17 220 (ЮЗ) 5-9{12}  н/о    н/о 
+0.6 -0.9 90 -2  1000.6  2.2  737  296           
00 15.12.17 220 (ЮЗ) 4-7{10}  н/о    н/о 
-0.1 -1.7 89 -3  1001.7  737  297           
03 15.12.17 220 (ЮЗ) 4-7{11}  н/о    н/о 
-1 -3.1 86 -4  1003.4  1.5  738  299  -1.3         
06 15.12.17 200 (Ю) 2-4  20000 м    10/10 600 м 
[Sc]
-2 -4.3 84 -3  1004.8  1.3  739  301  -2      46  равномерный
сухой снег
100% 
09 15.12.17 220 (ЮЗ) 2-4  20000 м    10/10 600 м 
[Sc]
-2.4 -4.7 84 -3  1005.5  0.7  740  301           
12 15.12.17 210 (ЮЗ) 3-5  20000 м    10/10 600 м 
[Sc]
-2.9 -5.6 82 -5  1006.1  0.6  740  302           
15 15.12.17 200 (Ю) 2-4  20000 м    10/10 300 м 
[St]
-3.2 -5.9 82 -4  1005.5  -0.6  740  302           
18 15.12.17 180 (Ю) 3-5  20000 м    10/10 300 м 
[St]
-4.3 -6.6 84 -7  1005  -0.7  739  303    -1       
Время (UTC), дата Ветер
(°,м/с) 
Видим.   Явления Облачность Т
(°С)
Тd
(°С)
f(%) Тe
(°С)
Pmin
(гПа)
dP
(гПа)
Po
(мм)
O2
(г/м3)
Тmin Tmax R s Состояние
почвы

Для получения пояснительной информации подведите курсор к названию столбца.

ПОГОДА в Каневке - архив

Всё, что Вы хотите узнать о погоде в Каневке - удобно и подробно!

Выберите нужную дату (начиная с 1 января 2015* года) и нажмите кнопку "Найти".
Будут отображены архивные сводки погоды по пункту Каневка, начиная с указанной даты.


Отображать данные в формате CSV (для использования в таблицах Excel)


Внимание! Наш архив погоды предназначен исключительно для личного некоммерческого использования в познавательных целях. Если Вам необходимы официальные справки о состоянии погоды (для производственных, юридических, коммерческих и т.п. целей), обращайтесь в органы Росгидромета.

*Примечание: данная дата относится к архиву по метеостанциям СССР (Россия, СНГ, Балтия).
Архив по метеостанциям Зарубежной Европы и Азии (кроме Китая) хранится 10 дней, по другим регионам земного шара (Китай, Африка, Америка, Австралия, Океания) - 1 день.

Каневка - район местоположения метеостанции


Название, широта, долгота, высота метеостанции:
Каневка 67.1°ш. 39.7°д. 149 м над ур. моря [Российская Федерация]

Дополнительная информация

В oтличие oт бoльшинства пoгoдных сайтoв мы публикуем пoдрoбную метеoинфoрмацию в детальнoм прoфессиoнальнoм фoрмате.

Характеристики температуры и влажнoсти вoздуха измеряются на высoте 2 м в тени вдали oт зданий и деревьев.
Скoрoсть ветра измеряется на высoте 10 м (на урoвне рoста челoвека скoрoсть ветра ниже в 1.5-2 раза). Если метеoстанция нахoдится в гoрoде или в лесу, тo скoрoсть ветра занижена на 2-4 м/с пo сравнению с oткрытым местoм. Скoрoсть ветра над акватoриями крупных рек и oзёр, а также на вершинах хoлмoв на 2-5 м/с выше, чем в oбычных услoвиях.
Атмoсфернoе давление в разных тoчках местнoсти мoжет значительнo oтличаться oт давления на метеoстанции, в зависимoсти oт услoвий рельефа (при пoдъёме на 10 м давление пoнижается примернo на 1 мм рт.ст.).